Location: Newark
(25.4297°S, 49.2719°W)
Time: 22:11:53
(UTC+00:00)

Vanguard 1 Rocket - Pass Details

Date: 28 November 2019
Orbit: 650 x 4226 km, 34.3° (Epoch: 09 December)

Event Time Altitude Azimuth Distance (km) Brightness Sun altitude
Rises 20:10:15 0° 248° (WSW) 7,796 13.7 20.8°
Reaches altitude 10° 20:15:09 10° 247° (WSW) 7,046 14.1 19.8°
Maximum altitude 20:41:46 86° 155° (SSE) 4,086 10.9 14.0°
Drops below altitude 10° 21:02:44 10° 65° (ENE) 5,822 10.9 9.5°
Sets 21:06:17 0° 64° (ENE) 6,468 11.1 8.7°
